Location: Alafon
(8.4500°N, 4.2333°E)
Time: 17:13:28
(UTC+00:00)

SR - Pass Details

Date: 08 August 2021
Orbit: 581 x 874 km, 66.7° (Epoch: 18 September)

Event Time Altitude Azimuth Distance (km) Brightness Sun altitude
Rises 13:32:53 0° 357° (N) 2,858 ? 63.5°
Reaches altitude 10° 13:35:27 10° 10° (N) 1,925 ? 62.9°
Maximum altitude 13:39:04 27° 68° (ENE) 1,144 ? 62.0°
Drops below altitude 10° 13:42:38 10° 126° (SE) 1,888 ? 61.2°
Sets 13:45:07 0° 139° (SE) 2,791 ? 60.6°
